Location: Arroyo de Valdeoliva
(40.1604°N, 4.9878°W)
Time: 15:19:54
(UTC+00:00)

BlueWalker 3 - Pass Details

Date: 23 February 2026
Orbit: 451 x 458 km, 53.2° (Epoch: 6 March)

Event Time Altitude Azimuth Distance (km) Brightness Sun altitude
Exits shadow 05:47:06 - 203° (SSW) 2,030 4.8 -15.1°
Reaches altitude 10° 05:48:16 10° 197° (SSW) 1,590 4.3 -14.9°
Maximum altitude 05:51:30 32° 132° (SE) 806 3.5 -14.3°
Drops below altitude 10° 05:54:44 10° 68° (ENE) 1,596 5.6 -13.7°
Sets 05:57:00 0° 58° (ENE) 2,472 6.5 -13.2°
